Weather History for Jefferson City, MO

Change the Weather History Date:

Saturday, July 6, 2013

  Actual Average Record
Temperature  
Mean Temperature 77 °F -  
Max Temperature 91 °F 88 °F 105 °F (2012)
Min Temperature 63 °F 64 °F 44 °F (1972)
Cooling Degree Days 12    
Growing Degree Days 27 (Base 50)    
Moisture  
Dew Point 61 °F    
Average Humidity 61    
Maximum Humidity 90    
Minimum Humidity 32    
Precipitation  
Precipitation 0.00 in - - ()
Sea Level Pressure  
Sea Level Pressure 29.95 in    
Wind  
Wind Speed 4 mph (SE)    
Max Wind Speed 15 mph    
Max Gust Speed -    
Visibility 10 miles    
Events      
Averages and records for this station are not official NWS values.
T = Trace of Precipitation, MM = Missing Value Source: NWS Daily Summary

Daily Weather History Graph

Daily Weather History Graph

Search for Another Location

Airport:

Trip Planner

Search our weather history database for the weather conditions in past years. The results will help you decide how hot, cold, wet, or windy it might be!

Date:

Astronomy

Jul. 06, 2013 Rise Set
Actual Time 5:50 AM CDT 8:35 PM CDT
Civil Twilight 5:19 AM CDT 9:07 PM CDT
Nautical Twilight 4:39 AM CDT 9:46 PM CDT
Astronomical Twilight 3:55 AM CDT 10:31 PM CDT
Moon 4:36 AM CDT (7/6) 7:18 PM CDT (7/6)
Length of Visible Light 15h 48m
Length of Day
14h 45m
Waning Crescent, 2% of the Moon is Illuminated
Jul 6
Waning Crescent
Jul 8
New
Jul 15
First Quarter
Jul 22
Full
Jul 29
Last Quarter

Hourly Weather History & Observations

Time (CDT) Temp. Heat Index Dew Point Humidity Pressure Visibility Wind Dir Wind Speed Gust Speed Precip Events Conditions
12:53 AM 66.9 °F - 57.0 °F 70% 29.98 in 10.0 mi ESE 3.5 mph - N/A   Clear
1:53 AM 66.0 °F - 57.9 °F 75% 29.98 in 10.0 mi Calm Calm - N/A   Clear
2:53 AM 66.9 °F - 59.0 °F 76% 29.97 in 10.0 mi Calm Calm - N/A   Unknown
3:53 AM 64.0 °F - 59.0 °F 84% 29.97 in 10.0 mi ESE 5.8 mph - N/A   Clear
4:53 AM 63.0 °F - 59.0 °F 87% 29.98 in 10.0 mi ESE 4.6 mph - N/A   Clear
5:53 AM 63.0 °F - 60.1 °F 90% 29.98 in 8.0 mi SE 3.5 mph - N/A   Clear
6:53 AM 64.9 °F - 61.0 °F 87% 29.98 in 5.0 mi SE 3.5 mph - N/A   Clear
7:53 AM 69.1 °F - 63.0 °F 81% 29.99 in 7.0 mi ESE 5.8 mph - N/A   Clear
8:53 AM 73.9 °F - 64.0 °F 71% 30.00 in 10.0 mi ESE 4.6 mph - N/A   Clear
9:53 AM 78.1 °F - 64.9 °F 64% 29.99 in 10.0 mi ESE 5.8 mph - N/A   Clear
10:53 AM 82.9 °F 84.4 °F 64.0 °F 53% 29.98 in 10.0 mi Variable 5.8 mph - N/A   Clear
11:53 AM 84.0 °F 85.4 °F 64.0 °F 51% 29.98 in 10.0 mi Variable 4.6 mph - N/A   Clear
12:53 PM 87.1 °F 87.8 °F 63.0 °F 44% 29.95 in 10.0 mi South 4.6 mph - N/A   Clear
1:53 PM 88.0 °F 87.9 °F 61.0 °F 40% 29.93 in 10.0 mi South 5.8 mph - N/A   Partly Cloudy
2:53 PM 90.0 °F 89.7 °F 60.1 °F 37% 29.91 in 10.0 mi South 5.8 mph - N/A   Scattered Clouds
3:53 PM 89.1 °F 88.8 °F 60.1 °F 38% 29.91 in 10.0 mi WSW 5.8 mph - N/A   Clear
4:53 PM 91.0 °F 89.7 °F 57.0 °F 32% 29.90 in 10.0 mi East 6.9 mph - N/A   Clear
5:53 PM 84.0 °F 84.5 °F 62.1 °F 47% 29.91 in 10.0 mi SE 15.0 mph - N/A   Clear
6:53 PM 82.9 °F 83.2 °F 60.1 °F 46% 29.92 in 10.0 mi SE 8.1 mph - N/A   Clear
7:53 PM 81.0 °F 81.7 °F 61.0 °F 50% 29.92 in 10.0 mi SE 5.8 mph - N/A   Clear
8:53 PM 78.1 °F - 60.1 °F 54% 29.93 in 10.0 mi East 8.1 mph - N/A   Clear
9:53 PM 75.0 °F - 61.0 °F 62% 29.94 in 10.0 mi ESE 8.1 mph - N/A   Clear
10:53 PM 75.0 °F - 62.1 °F 64% 29.96 in 10.0 mi SE 5.8 mph - N/A   Mostly Cloudy
11:53 PM 73.0 °F - 63.0 °F 71% 29.96 in 10.0 mi ESE 3.5 mph - N/A   Partly Cloudy